Sioux Falls, SD

8:31 AM CST on February 13, 2016 (GMT -0600)
Foss

Weather History for KFSD - February, 2014

Change the Weather History Date:

Sunday, February 2, 2014

  Actual Average Record
Temperature  
Mean Temperature 10 °F 18 °F  
Max Temperature 23 °F 28 °F 56 °F (1991)
Min Temperature -3 °F 8 °F -37 °F (1905)
Degree Days  
Heating Degree Days 55 47  
Month to date heating degree days 110 94  
Since 1 July heating degree days 4974 4726  
Cooling Degree Days 0 0  
Month to date cooling degree days 0 0  
Year to date cooling degree days 0 0  
Moisture  
Dew Point 2 °F    
Average Humidity 70    
Maximum Humidity 87    
Minimum Humidity 52    
Precipitation  
Precipitation T in 0.02 in 1.03 in (1919)
Month to date precipitation T 0.04  
Year to date precipitation 0.31 0.60  
Snow  
Snow T in 0.20 in 3.00 in (1893)
Month to date snowfall T 0.5  
Since 1 July snowfall 25.2 25.1  
Snow Depth 1.00 in    
Sea Level Pressure  
Sea Level Pressure 30.28 in    
Wind  
Wind Speed 5 mph (SW)    
Max Wind Speed 17 mph    
Max Gust Speed 22 mph    
Visibility 10 miles    
Events      
T = Trace of Precipitation, MM = Missing Value Source: NWS Daily Summary

Daily Weather History Graph

Daily Weather History Graph

Search for Another Location

Airport or City:

Trip Planner

Search our weather history database for the weather conditions in past years. The results will help you decide how hot, cold, wet, or windy it might be!

Date:

Astronomy

Feb. 02, 2014 Rise Set
Actual Time 7:42 AM CST 5:39 PM CST
Civil Twilight 7:11 AM CST 6:10 PM CST
Nautical Twilight 6:37 AM CST 6:44 PM CST
Astronomical Twilight 6:04 AM CST 7:17 PM CST
Moon 9:02 AM CST (2/2) 9:33 PM CST (2/2)
Length of Visible Light 10h 58m
Length of Day
9h 57m
Waxing Crescent, 11% of the Moon is Illuminated
Feb 2
Waxing Crescent
Feb 6
First Quarter
Feb 14
Full
Feb 22
Last Quarter
Mar 1
New

Hourly Weather History & Observations

Time (CST) Temp. Windchill Dew Point Humidity Pressure Visibility Wind Dir Wind Speed Gust Speed Precip Events Conditions
12:56 AM 6.1 °F - -0.0 °F 76% 30.34 in 10.0 mi Calm Calm - 0.00 in   Overcast
1:12 AM 6.1 °F -0.9 °F -0.0 °F 76% 30.23 in 10.0 mi West 3.5 mph - N/A   Overcast
1:56 AM 6.1 °F -2.8 °F -0.0 °F 76% 30.33 in 10.0 mi SW 4.6 mph - N/A   Overcast
2:56 AM 3.0 °F -6.4 °F -0.9 °F 84% 30.35 in 10.0 mi WSW 4.6 mph - N/A   Clear
3:56 AM 1.0 °F -6.7 °F -2.9 °F 83% 30.35 in 10.0 mi WSW 3.5 mph - N/A   Clear
4:56 AM -0.0 °F -9.9 °F -4.0 °F 83% 30.35 in 10.0 mi SW 4.6 mph - N/A   Partly Cloudy
5:56 AM -0.9 °F - -5.1 °F 83% 30.36 in 10.0 mi Calm Calm - N/A   Clear
6:56 AM -2.9 °F -11.2 °F -7.1 °F 82% 30.36 in 10.0 mi WSW 3.5 mph - N/A   Clear
7:56 AM -2.0 °F -10.1 °F -6.0 °F 83% 30.37 in 10.0 mi West 3.5 mph - N/A   Clear
8:56 AM 3.0 °F -6.4 °F -2.0 °F 80% 30.37 in 10.0 mi West 4.6 mph - N/A   Clear
9:56 AM 7.0 °F 0.1 °F -0.0 °F 73% 30.37 in 10.0 mi WSW 3.5 mph - N/A   Clear
10:56 AM 10.9 °F 2.9 °F 1.9 °F 67% 30.35 in 10.0 mi SW 4.6 mph - N/A   Clear
11:56 AM 12.9 °F 0.7 °F 1.9 °F 62% 30.33 in 10.0 mi SW 9.2 mph - N/A   Clear
12:56 PM 17.1 °F 4.3 °F 5.0 °F 59% 30.30 in 10.0 mi SSW 11.5 mph - N/A   Clear
1:56 PM 19.0 °F 6.1 °F 6.1 °F 57% 30.27 in 10.0 mi SSW 12.7 mph - N/A   Clear
2:56 PM 21.9 °F 9.2 °F 7.0 °F 53% 30.25 in 10.0 mi SSW 13.8 mph - N/A   Clear
3:56 PM 23.0 °F 11.7 °F 8.1 °F 53% 30.24 in 10.0 mi SSW 11.5 mph - N/A   Clear
4:56 PM 21.9 °F 13.4 °F 9.0 °F 58% 30.23 in 10.0 mi South 6.9 mph - N/A   Clear
5:56 PM 21.0 °F 12.4 °F 8.1 °F 57% 30.21 in 10.0 mi SSE 6.9 mph - N/A   Clear
6:56 PM 18.0 °F 11.1 °F 8.1 °F 65% 30.21 in 10.0 mi SE 4.6 mph - N/A   Clear
7:56 PM 16.0 °F - 7.0 °F 68% 30.21 in 10.0 mi Calm Calm - N/A   Clear
8:56 PM 16.0 °F 6.3 °F 7.0 °F 68% 30.19 in 10.0 mi South 6.9 mph - N/A   Clear
9:56 PM 17.1 °F - 8.1 °F 68% 30.19 in 10.0 mi Calm Calm - N/A   Clear
10:56 PM 15.1 °F 7.7 °F 7.0 °F 70% 30.18 in 10.0 mi SSW 4.6 mph - N/A   Clear
11:56 PM 9.0 °F 2.4 °F 5.0 °F 84% 30.19 in 10.0 mi SSW 3.5 mph - N/A   Clear